EW4028 Weather Reports


time (UTC)temp
C
wind
direction
speed
KPH
gust
KPH
rain 1hr
cm
rain 24hr
cm
rain mn
cm
humidity
%
barometer
mb
20260505011553 23 203 0.0 1.6 0.00 0.00 0.00 56 1002.2
20260505010107 23 217 0.0 1.6 0.00 0.00 0.00 54 1002.0
20260505004551 24 290 0.0 1.6 0.00 0.00 0.00 53 1002.0
20260505003052 25 255 0.0 4.8 0.00 0.00 0.00 51 1001.8
20260505001550 25 245 0.0 4.8 0.00 0.00 0.00 49 1001.8
20260505000054 26 39 0.0 3.2 0.00 0.00 0.00 48 1001.6
20260504234548 26 229 3.2 16.1 0.00 0.00 0.00 47 1001.6
20260504233053 26 228 0.0 11.3 0.00 0.00 0.00 46 1001.5
20260504231546 26 274 3.2 12.9 0.00 0.00 0.00 45 1001.5
20260504230104 27 221 3.2 12.9 0.00 0.00 0.00 44 1001.6
20260504224559 27 247 4.8 17.7 0.00 0.00 0.00 43 1001.6
20260504223044 27 214 1.6 17.7 0.00 0.00 0.00 44 1001.7
20260504221542 27 250 1.6 14.5 0.00 0.00 0.00 45 1001.5
20260504220051 27 254 3.2 16.1 0.00 0.00 0.00 44 1001.6
20260504214545 27 138 1.6 14.5 0.00 0.00 0.00 46 1001.7
20260504213040 27 252 1.6 12.9 0.00 0.00 0.00 46 1001.8
20260504211541 27 319 3.2 17.7 0.00 0.00 0.00 46 1001.9
20260504210052 27 262 3.2 11.3 0.00 0.00 0.00 44 1002.0
20260504204545 27 246 1.6 14.5 0.00 0.00 0.00 45 1002.1
20260504203037 27 227 3.2 19.3 0.00 0.00 0.00 46 1002.3
20260504201536 27 218 6.4 20.9 0.00 0.00 0.00 45 1002.5
20260504200045 27 148 4.8 12.9 0.00 0.00 0.00 45 1002.6
20260504194531 27 162 6.4 16.1 0.00 0.00 0.00 44 1002.7
20260504193027 27 216 1.6 16.1 0.00 0.00 0.00 47 1003.1
20260504191526 26 259 4.8 16.1 0.00 0.00 0.00 46 1003.2
20260504190025 27 218 3.2 12.9 0.00 0.00 0.00 48 1003.3
20260504184532 26 167 1.6 12.9 0.00 0.00 0.00 50 1003.5
20260504183025 25 143 4.8 11.3 0.00 0.00 0.00 52 1003.0
20260504181516 23 199 3.2 11.3 0.00 0.00 0.00 50 1003.5
20260504180014 24 272 3.2 11.3 0.00 0.00 0.00 48 1003.8
20260504174512 24 90 0.0 4.8 0.00 0.00 0.00 49 1004.0
20260504173012 25 131 0.0 8.0 0.00 0.00 0.00 49 1003.9
20260504171509 25 127 1.6 8.0 0.00 0.00 0.00 46 1004.2
20260504160106 24 221 1.6 25.7 0.00 0.00 0.00 49 1004.5
20260504081640 16 276 0.0 0.0 0.00 0.00 0.00 65 1007.4
20260504050012 18 210 0.0 4.8 0.00 0.00 0.00 57 1008.2
20260504044513 18 186 1.6 4.8 0.00 0.00 0.00 56 1008.3
20260504043012 18 184 0.0 1.6 0.00 0.00 0.00 56 1008.4
20260504041508 18 182 0.0 3.2 0.00 0.00 0.00 54 1008.5
20260504040006 18 169 0.0 4.8 0.00 0.00 0.00 53 1008.6
20260504034508 19 192 1.6 6.4 0.00 0.00 0.00 52 1008.7
20260504033005 19 158 0.0 3.2 0.00 0.00 0.00 52 1008.9
20260504031510 19 200 1.6 4.8 0.00 0.00 0.00 51 1009.0
20260504030003 19 162 0.0 0.0 0.00 0.00 0.00 53 1009.1
20260504024503 19 150 0.0 0.0 0.00 0.00 0.00 53 1009.2
20260504023004 19 209 0.0 1.6 0.00 0.00 0.00 53 1009.0
20260504021506 20 295 0.0 0.0 0.00 0.00 0.00 53 1008.9
20260504020003 20 171 0.0 0.0 0.00 0.00 0.00 51 1008.7
20260504014608 20 153 0.0 0.0 0.00 0.00 0.00 51 1008.7
20260504013100 21 195 0.0 0.0 0.00 0.00 0.00 50 1008.7